| time (UTC) | temp F | wind direction | speed knots | gust knots | rain 1hr in | rain 24hr in | rain mn in | humidity % | barometer mb |
| 20260503184911 | 62 | 218 | 12.2 | 19.1 | 0.00 | 0.00 | 0.00 | 38 | 1015.0 |
| 20260503184400 | 60 | 202 | 10.4 | 16.5 | 0.00 | 0.00 | 0.00 | 39 | 1015.2 |
| 20260503183900 | 61 | 250 | 8.7 | 14.8 | 0.00 | 0.00 | 0.00 | 37 | 1015.4 |
| 20260503183354 | 61 | 223 | 8.7 | 14.8 | 0.00 | 0.00 | 0.00 | 38 | 1015.2 |
| 20260503182848 | 61 | 271 | 8.7 | 14.8 | 0.00 | 0.00 | 0.00 | 35 | 1015.4 |
| 20260503182342 | 61 | 300 | 7.8 | 13.9 | 0.00 | 0.00 | 0.00 | 37 | 1015.6 |
| 20260503181832 | 61 | 246 | 7.8 | 18.2 | 0.00 | 0.00 | 0.00 | 36 | 1015.8 |
| 20260503181330 | 61 | 253 | 7.8 | 18.2 | 0.00 | 0.00 | 0.00 | 35 | 1015.8 |
| 20260503180823 | 62 | 261 | 7.8 | 14.8 | 0.00 | 0.00 | 0.00 | 37 | 1015.9 |
| 20260503180317 | 61 | 292 | 7.0 | 13.0 | 0.00 | 0.00 | 0.00 | 35 | 1015.9 |
| 20260503175811 | 61 | 271 | 8.7 | 14.8 | 0.00 | 0.00 | 0.00 | 37 | 1016.0 |
| 20260503175525 | 60 | 233 | 11.3 | 17.4 | 0.00 | 0.00 | 0.00 | 35 | 1016.2 |
| 20260503174759 | 60 | 248 | 10.4 | 17.4 | 0.00 | 0.00 | 0.00 | 33 | 1016.5 |
| 20260503174248 | 60 | 249 | 8.7 | 16.5 | 0.00 | 0.00 | 0.00 | 35 | 1016.3 |
| 20260503173747 | 60 | 261 | 9.6 | 18.2 | 0.00 | 0.00 | 0.00 | 36 | 1016.5 |
| 20260503173241 | 60 | 234 | 9.6 | 18.2 | 0.00 | 0.00 | 0.00 | 35 | 1016.5 |
| 20260503172735 | 59 | 286 | 9.6 | 16.5 | 0.00 | 0.00 | 0.00 | 36 | 1016.5 |
| 20260503172229 | 59 | 252 | 8.7 | 15.6 | 0.00 | 0.00 | 0.00 | 35 | 1016.7 |
| 20260503171719 | 59 | 263 | 8.7 | 15.6 | 0.00 | 0.00 | 0.00 | 37 | 1016.5 |
| 20260503171217 | 59 | 238 | 11.3 | 17.4 | 0.00 | 0.00 | 0.00 | 37 | 1016.7 |
| 20260503170936 | 59 | 222 | 11.3 | 19.1 | 0.00 | 0.00 | 0.00 | 35 | 1016.8 |
| 20260503170206 | 60 | 259 | 10.4 | 16.5 | 0.00 | 0.00 | 0.00 | 35 | 1016.8 |
| 20260503150444 | 56 | 262 | 8.7 | 16.5 | 0.00 | 0.00 | 0.00 | 41 | 1018.5 |
| 20260503131224 | 47 | 232 | 4.3 | 7.0 | 0.00 | 0.00 | 0.00 | 66 | 1019.0 |
| 20260503130722 | 46 | 240 | 4.3 | 7.0 | 0.00 | 0.00 | 0.00 | 66 | 1019.0 |
| 20260503130211 | 45 | 230 | 5.2 | 7.0 | 0.00 | 0.00 | 0.00 | 66 | 1019.0 |
| 20260503110630 | 38 | 194 | 1.7 | 3.5 | 0.00 | 0.00 | 0.00 | 73 | 1018.2 |
| 20260503110118 | 38 | 198 | 2.6 | 5.2 | 0.00 | 0.00 | 0.00 | 72 | 1018.1 |
| 20260503081017 | 41 | 242 | 2.6 | 4.3 | 0.00 | 0.00 | 0.00 | 64 | 1017.7 |
| 20260503080735 | 41 | 244 | 2.6 | 5.2 | 0.00 | 0.00 | 0.00 | 62 | 1017.8 |
| 20260503072501 | 40 | 254 | 3.5 | 4.3 | 0.00 | 0.00 | 0.00 | 69 | 1017.8 |
| 20260503072000 | 41 | 260 | 3.5 | 5.2 | 0.00 | 0.00 | 0.00 | 68 | 1017.8 |
| 20260503071501 | 41 | 252 | 2.6 | 5.2 | 0.00 | 0.00 | 0.00 | 69 | 1017.8 |
| 20260503071001 | 41 | 246 | 2.6 | 3.5 | 0.00 | 0.00 | 0.00 | 69 | 1017.9 |
| 20260503070501 | 41 | 242 | 1.7 | 3.5 | 0.00 | 0.00 | 0.00 | 67 | 1017.8 |
| 20260503054937 | 43 | 244 | 2.6 | 4.3 | 0.00 | 0.00 | 0.00 | 64 | 1018.2 |
| 20260503054645 | 43 | 245 | 3.5 | 3.5 | 0.00 | 0.00 | 0.00 | 61 | 1018.2 |
| 20260503053916 | 43 | 249 | 2.6 | 3.5 | 0.00 | 0.00 | 0.00 | 62 | 1018.3 |
| 20260503053410 | 43 | 248 | 2.6 | 3.5 | 0.00 | 0.00 | 0.00 | 62 | 1018.4 |
| 20260503052900 | 43 | 251 | 2.6 | 3.5 | 0.00 | 0.00 | 0.00 | 59 | 1018.4 |
| 20260503052356 | 43 | 252 | 2.6 | 3.5 | 0.00 | 0.00 | 0.00 | 60 | 1018.4 |
| 20260503052109 | 43 | 253 | 2.6 | 3.5 | 0.00 | 0.00 | 0.00 | 62 | 1018.4 |
| 20260503051602 | 43 | 246 | 2.6 | 3.5 | 0.00 | 0.00 | 0.00 | 63 | 1018.4 |
| 20260503050830 | 42 | 248 | 2.6 | 3.5 | 0.00 | 0.00 | 0.00 | 63 | 1018.4 |
| 20260503050324 | 42 | 260 | 3.5 | 4.3 | 0.00 | 0.00 | 0.00 | 64 | 1018.5 |
| 20260503045812 | 42 | 261 | 3.5 | 4.3 | 0.00 | 0.00 | 0.00 | 64 | 1018.5 |
| 20260503045310 | 42 | 270 | 3.5 | 3.5 | 0.00 | 0.00 | 0.00 | 65 | 1018.5 |
| 20260503045023 | 42 | 260 | 2.6 | 3.5 | 0.00 | 0.00 | 0.00 | 65 | 1018.4 |
| 20260503044524 | 42 | 254 | 2.6 | 3.5 | 0.00 | 0.00 | 0.00 | 66 | 1018.4 |
| 20260503043752 | 42 | 259 | 2.6 | 3.5 | 0.00 | 0.00 | 0.00 | 65 | 1018.4 |
| 20260503043247 | 43 | 262 | 2.6 | 3.5 | 0.00 | 0.00 | 0.00 | 64 | 1018.3 |
| 20260503042742 | 44 | 256 | 2.6 | 2.6 | 0.00 | 0.00 | 0.00 | 61 | 1018.2 |
| 20260503042231 | 44 | 254 | 2.6 | 2.6 | 0.00 | 0.00 | 0.00 | 59 | 1018.2 |
| 20260503041727 | 44 | 259 | 2.6 | 2.6 | 0.00 | 0.00 | 0.00 | 60 | 1018.1 |
| 20260503041226 | 44 | 260 | 2.6 | 2.6 | 0.00 | 0.00 | 0.00 | 59 | 1018.1 |
| 20260503040726 | 44 | 262 | 1.7 | 2.6 | 0.00 | 0.00 | 0.00 | 61 | 1018.1 |
| 20260503040435 | 44 | 254 | 1.7 | 1.7 | 0.00 | 0.00 | 0.00 | 60 | 1018.1 |
| 20260503040318 | 44 | 261 | 1.7 | 2.6 | 0.00 | 0.00 | 0.00 | 60 | 1018.1 |
| 20260503035223 | 45 | 257 | 1.7 | 2.6 | 0.00 | 0.00 | 0.00 | 61 | 1018.2 |
| 20260503034724 | 45 | 254 | 1.7 | 2.6 | 0.00 | 0.00 | 0.00 | 59 | 1018.2 |
| 20260503034224 | 45 | 257 | 0.9 | 1.7 | 0.00 | 0.00 | 0.00 | 58 | 1018.2 |
| 20260503033724 | 46 | 265 | 0.9 | 1.7 | 0.00 | 0.00 | 0.00 | 54 | 1018.2 |
| 20260503033223 | 46 | 265 | 0.9 | 1.7 | 0.00 | 0.00 | 0.00 | 50 | 1018.2 |
| 20260503032942 | 47 | 265 | 0.9 | 1.7 | 0.00 | 0.00 | 0.00 | 48 | 1018.1 |
| 20260503032219 | 47 | 336 | 0.9 | 1.7 | 0.00 | 0.00 | 0.00 | 46 | 1018.2 |
| 20260503031708 | 47 | 347 | 1.7 | 1.7 | 0.00 | 0.00 | 0.00 | 45 | 1018.3 |
| 20260503031208 | 47 | 0 | 1.7 | 1.7 | 0.00 | 0.00 | 0.00 | 45 | 1018.3 |
| 20260503030708 | 47 | 9 | 1.7 | 1.7 | 0.00 | 0.00 | 0.00 | 45 | 1018.3 |
| 20260503030208 | 47 | 11 | 1.7 | 1.7 | 0.00 | 0.00 | 0.00 | 46 | 1018.3 |
| 20260503025708 | 47 | 0 | 1.7 | 1.7 | 0.00 | 0.00 | 0.00 | 46 | 1018.2 |
| 20260503025417 | 47 | 355 | 1.7 | 1.7 | 0.00 | 0.00 | 0.00 | 45 | 1018.2 |
| 20260503025259 | 47 | 0 | 1.7 | 1.7 | 0.00 | 0.00 | 0.00 | 46 | 1018.3 |
| 20260503024208 | 47 | 0 | 1.7 | 1.7 | 0.00 | 0.00 | 0.00 | 46 | 1018.2 |
| 20260503023707 | 47 | 5 | 1.7 | 2.6 | 0.00 | 0.00 | 0.00 | 47 | 1018.1 |
| 20260503023429 | 47 | 355 | 1.7 | 2.6 | 0.00 | 0.00 | 0.00 | 46 | 1018.1 |
| 20260503022651 | 47 | 13 | 1.7 | 2.6 | 0.00 | 0.00 | 0.00 | 47 | 1018.1 |
| 20260503022151 | 47 | 349 | 1.7 | 2.6 | 0.00 | 0.00 | 0.00 | 46 | 1018.0 |
| 20260503021652 | 47 | 0 | 1.7 | 2.6 | 0.00 | 0.00 | 0.00 | 46 | 1018.0 |
| 20260503021151 | 47 | 12 | 1.7 | 2.6 | 0.00 | 0.00 | 0.00 | 46 | 1018.0 |
| 20260503020652 | 47 | 9 | 1.7 | 2.6 | 0.00 | 0.00 | 0.00 | 47 | 1018.0 |
| 20260503020414 | 47 | 0 | 1.7 | 2.6 | 0.00 | 0.00 | 0.00 | 46 | 1017.9 |
| 20260503015652 | 47 | 22 | 1.7 | 2.6 | 0.00 | 0.00 | 0.00 | 47 | 1017.9 |
| 20260503015151 | 47 | 14 | 1.7 | 2.6 | 0.00 | 0.00 | 0.00 | 47 | 1017.8 |
| 20260503014652 | 47 | 19 | 1.7 | 2.6 | 0.00 | 0.00 | 0.00 | 47 | 1017.7 |
| 20260503014147 | 47 | 17 | 1.7 | 2.6 | 0.00 | 0.00 | 0.00 | 47 | 1017.7 |
| 20260503013636 | 47 | 13 | 1.7 | 2.6 | 0.00 | 0.00 | 0.00 | 46 | 1017.6 |
| 20260503013403 | 47 | 36 | 0.9 | 2.6 | 0.00 | 0.00 | 0.00 | 46 | 1017.6 |
| 20260503012635 | 47 | 32 | 0.9 | 1.7 | 0.00 | 0.00 | 0.00 | 46 | 1017.5 |
| 20260503012136 | 47 | 28 | 0.9 | 2.6 | 0.00 | 0.00 | 0.00 | 46 | 1017.5 |
| 20260503011636 | 48 | 36 | 1.7 | 2.6 | 0.00 | 0.00 | 0.00 | 46 | 1017.5 |
| 20260503011136 | 48 | 30 | 1.7 | 3.5 | 0.00 | 0.00 | 0.00 | 46 | 1017.4 |
| 20260503010636 | 48 | 25 | 1.7 | 4.3 | 0.00 | 0.00 | 0.00 | 47 | 1017.4 |
| 20260503010135 | 48 | 24 | 2.6 | 4.3 | 0.00 | 0.00 | 0.00 | 46 | 1017.3 |
| 20260503005859 | 48 | 15 | 1.7 | 4.3 | 0.00 | 0.00 | 0.00 | 45 | 1017.4 |
| 20260503005130 | 49 | 13 | 1.7 | 4.3 | 0.00 | 0.00 | 0.00 | 46 | 1017.3 |
| 20260503004617 | 49 | 0 | 1.7 | 4.3 | 0.00 | 0.00 | 0.00 | 45 | 1017.3 |
| 20260503004326 | 49 | 9 | 1.7 | 2.6 | 0.00 | 0.00 | 0.00 | 45 | 1017.3 |
| 20260503003559 | 49 | 350 | 1.7 | 4.3 | 0.00 | 0.00 | 0.00 | 44 | 1017.3 |
| 20260503003100 | 50 | 355 | 1.7 | 4.3 | 0.00 | 0.00 | 0.00 | 43 | 1017.3 |
| 20260503002825 | 50 | 40 | 2.6 | 4.3 | 0.00 | 0.00 | 0.00 | 42 | 1017.2 |
| 20260503002100 | 50 | 5 | 2.6 | 5.2 | 0.00 | 0.00 | 0.00 | 42 | 1017.2 |
| 20260503001600 | 50 | 11 | 1.7 | 5.2 | 0.00 | 0.00 | 0.00 | 43 | 1017.1 |
| 20260503001100 | 50 | 0 | 1.7 | 7.0 | 0.00 | 0.00 | 0.00 | 43 | 1017.0 |
| 20260503000600 | 51 | 19 | 2.6 | 7.0 | 0.00 | 0.00 | 0.00 | 42 | 1017.0 |
| 20260503000100 | 51 | 91 | 2.6 | 7.0 | 0.00 | 0.00 | 0.00 | 42 | 1016.9 |
| 20260502235559 | 51 | 36 | 4.3 | 7.8 | 0.00 | 0.00 | 0.00 | 40 | 1016.9 |
| 20260502235319 | 51 | 17 | 2.6 | 7.8 | 0.00 | 0.00 | 0.00 | 40 | 1016.9 |
| 20260502234547 | 52 | 355 | 2.6 | 9.6 | 0.00 | 0.00 | 0.00 | 39 | 1016.9 |
| 20260502234035 | 52 | 32 | 3.5 | 9.6 | 0.00 | 0.00 | 0.00 | 39 | 1016.9 |
| 20260502233534 | 52 | 23 | 4.3 | 10.4 | 0.00 | 0.00 | 0.00 | 40 | 1016.9 |
| 20260502233029 | 52 | 25 | 4.3 | 10.4 | 0.00 | 0.00 | 0.00 | 39 | 1016.9 |
| 20260502232523 | 52 | 43 | 3.5 | 7.8 | 0.00 | 0.00 | 0.00 | 39 | 1016.9 |
| 20260502232017 | 52 | 93 | 3.5 | 7.8 | 0.00 | 0.00 | 0.00 | 41 | 1016.9 |
| 20260502231506 | 51 | 13 | 2.6 | 7.8 | 0.00 | 0.00 | 0.00 | 42 | 1016.9 |
| 20260502231003 | 51 | 34 | 2.6 | 7.0 | 0.00 | 0.00 | 0.00 | 42 | 1016.9 |
| 20260502225948 | 51 | 26 | 4.3 | 8.7 | 0.00 | 0.00 | 0.00 | 41 | 1016.9 |
| 20260502225442 | 52 | 30 | 5.2 | 8.7 | 0.00 | 0.00 | 0.00 | 40 | 1016.9 |
| 20260502225206 | 52 | 325 | 5.2 | 8.7 | 0.00 | 0.00 | 0.00 | 39 | 1016.8 |
| 20260502224425 | 52 | 28 | 6.1 | 11.3 | 0.00 | 0.00 | 0.00 | 40 | 1016.8 |
| 20260502223924 | 53 | 0 | 4.3 | 11.3 | 0.00 | 0.00 | 0.00 | 37 | 1016.8 |
| 20260502223418 | 52 | 336 | 3.5 | 7.8 | 0.00 | 0.00 | 0.00 | 38 | 1016.7 |
| 20260502223403 | 52 | 11 | 4.3 | 9.6 | 0.00 | 0.00 | 0.00 | 38 | 1016.8 |
| 20260502222407 | 52 | 334 | 4.3 | 9.6 | 0.00 | 0.00 | 0.00 | 39 | 1016.8 |
| 20260502222116 | 52 | 14 | 4.3 | 11.3 | 0.00 | 0.00 | 0.00 | 39 | 1016.7 |
| 20260502221354 | 52 | 297 | 4.3 | 11.3 | 0.00 | 0.00 | 0.00 | 40 | 1016.7 |
| 20260502221100 | 52 | 103 | 3.5 | 9.6 | 0.00 | 0.00 | 0.00 | 38 | 1016.7 |
| 20260502220607 | 52 | 44 | 3.5 | 7.8 | 0.00 | 0.00 | 0.00 | 41 | 1016.7 |
| 20260502215837 | 53 | 327 | 3.5 | 9.6 | 0.00 | 0.00 | 0.00 | 40 | 1016.7 |
| 20260502215331 | 53 | 61 | 4.3 | 9.6 | 0.00 | 0.00 | 0.00 | 39 | 1016.7 |
| 20260502214825 | 54 | 56 | 3.5 | 11.3 | 0.00 | 0.00 | 0.00 | 38 | 1016.7 |
| 20260502214541 | 54 | 355 | 4.3 | 11.3 | 0.00 | 0.00 | 0.00 | 39 | 1016.7 |
| 20260502213813 | 55 | 44 | 5.2 | 13.0 | 0.00 | 0.00 | 0.00 | 38 | 1016.6 |
| 20260502213307 | 54 | 26 | 5.2 | 13.0 | 0.00 | 0.00 | 0.00 | 37 | 1016.5 |
| 20260502212754 | 54 | 336 | 6.1 | 12.2 | 0.00 | 0.00 | 0.00 | 38 | 1016.5 |
| 20260502212251 | 54 | 348 | 5.2 | 12.2 | 0.00 | 0.00 | 0.00 | 38 | 1016.6 |
| 20260502211744 | 53 | 348 | 4.3 | 12.2 | 0.00 | 0.00 | 0.00 | 39 | 1016.5 |
| 20260502211233 | 53 | 291 | 5.2 | 12.2 | 0.00 | 0.00 | 0.00 | 39 | 1016.6 |
| 20260502210732 | 53 | 59 | 5.2 | 11.3 | 0.00 | 0.00 | 0.00 | 39 | 1016.6 |
| 20260502210448 | 53 | 39 | 6.1 | 11.3 | 0.00 | 0.00 | 0.00 | 39 | 1016.5 |
| 20260502205719 | 53 | 337 | 7.0 | 14.8 | 0.00 | 0.00 | 0.00 | 37 | 1016.6 |
| 20260502205213 | 53 | 350 | 5.2 | 14.8 | 0.00 | 0.00 | 0.00 | 36 | 1016.6 |
| 20260502204704 | 55 | 344 | 3.5 | 10.4 | 0.00 | 0.00 | 0.00 | 38 | 1016.5 |
| 20260502204158 | 55 | 9 | 3.5 | 9.6 | 0.00 | 0.00 | 0.00 | 39 | 1016.6 |
| 20260502203648 | 54 | 257 | 4.3 | 9.6 | 0.00 | 0.00 | 0.00 | 39 | 1016.6 |
| 20260502203142 | 54 | 304 | 3.5 | 10.4 | 0.00 | 0.00 | 0.00 | 38 | 1016.6 |
| 20260502202639 | 53 | 346 | 3.5 | 10.4 | 0.00 | 0.00 | 0.00 | 38 | 1016.7 |
| 20260502202133 | 53 | 303 | 4.3 | 9.6 | 0.00 | 0.00 | 0.00 | 39 | 1016.7 |
| 20260502201628 | 53 | 18 | 5.2 | 15.6 | 0.00 | 0.00 | 0.00 | 38 | 1016.8 |
| 20260502201120 | 55 | 301 | 4.3 | 15.6 | 0.00 | 0.00 | 0.00 | 38 | 1016.7 |
| 20260502200615 | 54 | 325 | 3.5 | 8.7 | 0.00 | 0.00 | 0.00 | 39 | 1016.7 |
| 20260502195558 | 54 | 315 | 3.5 | 11.3 | 0.00 | 0.00 | 0.00 | 37 | 1016.8 |
| 20260502195049 | 54 | 313 | 4.3 | 9.6 | 0.00 | 0.00 | 0.00 | 38 | 1016.9 |
| 20260502194545 | 53 | 30 | 4.3 | 9.6 | 0.00 | 0.00 | 0.00 | 40 | 1016.9 |
| 20260502194039 | 54 | 317 | 4.3 | 10.4 | 0.00 | 0.00 | 0.00 | 38 | 1016.9 |
| 20260502193533 | 54 | 355 | 5.2 | 10.4 | 0.00 | 0.00 | 0.00 | 43 | 1016.9 |
| 20260502193021 | 53 | 278 | 5.2 | 12.2 | 0.00 | 0.00 | 0.00 | 41 | 1017.0 |
| 20260502192520 | 54 | 36 | 5.2 | 12.2 | 0.00 | 0.00 | 0.00 | 41 | 1017.0 |
| 20260502192013 | 54 | 33 | 5.2 | 10.4 | 0.00 | 0.00 | 0.00 | 40 | 1017.1 |
| 20260502191507 | 53 | 32 | 5.2 | 12.2 | 0.00 | 0.00 | 0.00 | 36 | 1017.1 |
| 20260502191225 | 53 | 337 | 5.2 | 13.0 | 0.00 | 0.00 | 0.00 | 36 | 1017.2 |
| 20260502190720 | 53 | 329 | 6.1 | 13.0 | 0.00 | 0.00 | 0.00 | 40 | 1017.2 |
| 20260502185950 | 53 | 37 | 6.1 | 13.0 | 0.00 | 0.00 | 0.00 | 37 | 1017.2 |
| 20260502185659 | 53 | 281 | 5.2 | 10.4 | 0.00 | 0.00 | 0.00 | 37 | 1017.1 |